Hourly Data Report for December 19, 2018

EUREKA CLIMATE
NUNAVUT
Current Station Operator: ECCC - MSC

79°59'21.000" N
85°56'02.000" W
10.00 m
2401199
71613
NEK

Download Data

Hourly Data (December 2018)
Hourly Data Report for December 19, 2018
TIME
LST
Temp Definition
°C
Dew Point Definition
°C
Rel Hum Definition
%
Precip. Amount Definition
mm

Wind Dir Definition
10's deg

Wind Spd Definition
km/h
Visibility Definition
km
Stn Press Definition
kPa
Hmdx Definition


Wind Chill Definition


Weather Definition


00:00 -40.4 -44.5 65 0.0 3 3   101.72   -45 LegendNANA
01:00 -40.3 -44.4 65 0.0 0 1   101.75   -42 LegendNANA
02:00 -40.3 -44.3 65 0.0 34 2   101.76   -43 LegendNANA
03:00 -39.6 -43.6 66 0.0 3 3   101.82   -44 LegendNANA
04:00 -39.8 -43.8 65 0.0 11 7   101.84   -49 LegendNANA
05:00 -40.2 -44.3 65 0.0 10 4   101.84   -46 LegendNANA
06:00 -40.1 -44.2 65 0.0 11 2   101.83   -43 LegendNANA
07:00 -38.7 -42.6 67 0.0 8 3   101.76   -43 LegendNANA
08:00 -41.7 -45.9 63 0.0 11 13   101.76   -55 LegendNANA
09:00 -40.1 -44.2 65 0.0 12 8   101.72   -50 LegendNANA
10:00 -40.5 -44.7 64 0.0 31 2   101.71   -43 LegendNANA
11:00 -40.6 -44.8 64 0.0 11 4   101.67   -46 LegendNANA
12:00 -40.7 -44.9 64 0.0 11 8   101.62   -51 LegendNANA
13:00 -39.6 -43.6 66 0.0 11 11   101.63   -51 LegendNANA
14:00 -39.8 -43.9 65 0.0 8 5   101.63   -47 LegendNANA
15:00 -38.0 -41.8 67 0.0 6 5   101.63   -45 LegendNANA
16:00 -37.6 -41.3 68 0.0 8 5   101.62   -44 LegendNANA
17:00 -41.2 -45.4 64 0.0 11 15   101.60   -55 LegendNANA
18:00 -39.2 -43.2 66 0.0 11 9   101.57   -49 LegendNANA
19:00 -38.2 -42.1 67 0.0 13 8   101.53   -48 LegendNANA
20:00 -38.9 -42.8 66 0.0 11 5   101.53   -46 LegendNANA
21:00 -36.7 -40.3 69 0.0 5 5   101.53   -43 LegendNANA
22:00 -39.0 -43.0 66 0.0 16 4   101.50   -44 LegendNANA
23:00 -38.1 -42.0 67 0.0 10 6   101.52   -46 LegendNANA

Notes on Data Quality.

Legend

  • E = Estimated
  • M = Missing
  • NA = Not Available*
  • [empty] = Indicates an unobserved value
Date modified: